EW0125 Weather Reports


time (UTC)temp
F
wind
direction
speed
knots
gust
knots
rain 1hr
in
rain 24hr
in
rain mn
in
humidity
%
barometer
mb
20260510202053 86 189 1.7 5.2 0.00 0.00 0.00 31 1012.1
20260510201616 86 186 0.9 8.7 0.00 0.00 0.00 31 1012.1
20260510201052 86 273 2.6 8.7 0.00 0.00 0.00 30 1012.2
20260510200552 87 337 0.9 8.7 0.00 0.00 0.00 31 1012.1
20260510200104 87 274 2.6 8.7 0.00 0.00 0.00 30 1012.2
20260510195552 87 242 0.9 7.8 0.00 0.00 0.00 32 1012.3
20260510195053 87 175 1.7 7.8 0.00 0.00 0.00 33 1012.3
20260510194604 86 209 0.9 7.8 0.00 0.00 0.00 32 1012.4
20260510194052 86 278 2.6 8.7 0.00 0.00 0.00 32 1012.3
20260510193552 86 251 3.5 8.7 0.00 0.00 0.00 33 1012.5
20260510193104 86 193 2.6 6.1 0.00 0.00 0.00 33 1012.5
20260510192552 86 164 0.9 7.8 0.00 0.00 0.00 33 1012.6
20260510192053 86 288 0.9 8.7 0.00 0.00 0.00 34 1012.5
20260510191605 86 165 3.5 8.7 0.00 0.00 0.00 34 1012.7
20260510191053 86 327 0.9 4.3 0.00 0.00 0.00 33 1012.5
20260510190552 85 0 0.9 7.0 0.00 0.00 0.00 33 1012.6
20260510190057 85 333 1.7 7.0 0.00 0.00 0.00 34 1012.8
20260510185552 86 274 1.7 7.0 0.00 0.00 0.00 34 1012.9
20260510185052 86 271 1.7 7.8 0.00 0.00 0.00 34 1012.8
20260510184557 86 298 0.9 7.8 0.00 0.00 0.00 36 1013.0
20260510184056 86 281 4.3 7.0 0.00 0.00 0.00 36 1012.9
20260510183552 85 0 1.7 7.0 0.00 0.00 0.00 38 1013.1
20260510183058 85 160 2.6 5.2 0.00 0.00 0.00 36 1013.0
20260510182552 86 192 1.7 5.2 0.00 0.00 0.00 37 1013.1
20260510182054 86 193 0.9 7.0 0.00 0.00 0.00 37 1013.1
20260510181557 85 191 1.7 7.0 0.00 0.00 0.00 37 1013.1
20260510181053 85 191 2.6 7.0 0.00 0.00 0.00 37 1013.2
20260510180553 85 178 0.9 7.0 0.00 0.00 0.00 38 1013.2
20260510180108 85 173 1.7 5.2 0.00 0.00 0.00 39 1013.3
20260510175552 85 188 1.7 4.3 0.00 0.00 0.00 38 1013.4
20260510175052 85 185 0.9 6.1 0.00 0.00 0.00 38 1013.3
20260510174555 84 185 1.7 6.1 0.00 0.00 0.00 38 1013.4
20260510174054 84 184 2.6 6.1 0.00 0.00 0.00 37 1013.3
20260510173612 84 291 1.7 6.1 0.00 0.00 0.00 39 1013.2
20260510173100 84 232 0.9 4.3 0.00 0.00 0.00 40 1013.3
20260510172552 84 192 0.9 4.3 0.00 0.00 0.00 39 1013.3
20260510172051 84 192 0.0 5.2 0.00 0.00 0.00 40 1013.3
20260510171556 84 236 1.7 5.2 0.00 0.00 0.00 41 1013.4
20260510171052 84 355 2.6 5.2 0.00 0.00 0.00 41 1013.6
20260510170553 83 350 1.7 5.2 0.00 0.00 0.00 41 1013.7
20260510170056 83 46 0.9 7.0 0.00 0.00 0.00 43 1013.7
20260510165555 83 41 0.9 7.0 0.00 0.00 0.00 41 1013.7
20260510165052 83 53 0.9 4.3 0.00 0.00 0.00 42 1013.7
20260510164558 82 158 0.9 4.3 0.00 0.00 0.00 43 1013.9
20260510164053 82 167 1.7 4.3 0.00 0.00 0.00 44 1013.9
20260510163553 82 138 0.9 4.3 0.00 0.00 0.00 44 1013.8
20260510163101 82 134 1.7 5.2 0.00 0.00 0.00 44 1013.8
20260510162553 81 150 1.7 5.2 0.00 0.00 0.00 44 1013.9
20260510162052 81 140 0.9 6.1 0.00 0.00 0.00 43 1013.9
20260510161600 81 140 0.9 6.1 0.00 0.00 0.00 43 1014.0
20260510161053 81 140 1.7 6.1 0.00 0.00 0.00 45 1014.0
20260510160553 81 232 0.9 3.5 0.00 0.00 0.00 48 1014.0
20260510160059 80 232 1.7 3.5 0.00 0.00 0.00 47 1014.0
20260510155555 80 323 1.7 3.5 0.00 0.00 0.00 47 1014.2
20260510155055 81 323 1.7 3.5 0.00 0.00 0.00 48 1014.1
20260510154601 81 325 0.9 4.3 0.00 0.00 0.00 49 1014.3
20260510154053 81 325 0.9 4.3 0.00 0.00 0.00 49 1014.2
20260510153553 81 318 1.7 5.2 0.00 0.00 0.00 51 1014.3
20260510153104 80 315 2.6 5.2 0.00 0.00 0.00 50 1014.4
20260510152552 80 294 0.9 4.3 0.00 0.00 0.00 51 1014.4
20260510152054 80 28 0.9 2.6 0.00 0.00 0.00 52 1014.4
20260510151603 80 28 0.0 7.0 0.00 0.00 0.00 54 1014.6
20260510151052 79 28 0.0 7.0 0.00 0.00 0.00 53 1014.5
20260510150554 79 28 1.7 7.0 0.00 0.00 0.00 53 1014.5
20260510150108 79 280 0.9 4.3 0.00 0.00 0.00 55 1014.5
20260510145552 78 274 0.9 3.5 0.00 0.00 0.00 54 1014.5
20260510145052 78 0 0.9 5.2 0.00 0.00 0.00 55 1014.5
20260510144608 78 271 0.9 5.2 0.00 0.00 0.00 56 1014.4
20260510144053 78 343 0.9 2.6 0.00 0.00 0.00 57 1014.4
20260510143552 78 17 0.9 4.3 0.00 0.00 0.00 58 1014.3
20260510143102 78 30 0.9 4.3 0.00 0.00 0.00 60 1014.3
20260510142552 78 63 1.7 4.3 0.00 0.00 0.00 59 1014.3
20260510142052 77 340 0.9 3.5 0.00 0.00 0.00 62 1014.2
20260510141556 77 340 0.9 3.5 0.00 0.00 0.00 62 1014.1
20260510141054 77 234 0.9 3.5 0.00 0.00 0.00 65 1014.2
20260510140552 76 234 0.9 3.5 0.00 0.00 0.00 65 1014.2
20260510140056 76 62 0.9 3.5 0.00 0.00 0.00 67 1014.1
20260510135553 75 0 0.9 3.5 0.00 0.00 0.00 66 1014.1
20260510135052 75 59 0.9 3.5 0.00 0.00 0.00 68 1014.0
20260510134555 74 59 0.0 4.3 0.00 0.00 0.00 68 1014.0
20260510134052 74 59 0.9 4.3 0.00 0.00 0.00 69 1014.2
20260510133552 73 63 0.9 4.3 0.00 0.00 0.00 70 1014.2
20260510133055 73 61 0.9 3.5 0.00 0.00 0.00 72 1014.2
20260510132552 72 0 0.9 5.2 0.00 0.00 0.00 72 1014.3
20260510132053 72 311 0.9 5.2 0.00 0.00 0.00 74 1014.2
20260510131558 71 266 1.7 5.2 0.00 0.00 0.00 75 1014.1
20260510131052 71 266 0.0 3.5 0.00 0.00 0.00 75 1014.0
20260510130552 70 266 0.0 3.5 0.00 0.00 0.00 76 1014.0
20260510130105 70 296 1.7 6.1 0.00 0.00 0.00 77 1014.0
20260510125553 70 309 1.7 6.1 0.00 0.00 0.00 77 1013.9
20260510125052 69 294 1.7 4.3 0.00 0.00 0.00 77 1013.8
20260510124554 69 318 0.0 4.3 0.00 0.00 0.00 79 1013.9
20260510124052 69 269 0.0 2.6 0.00 0.00 0.00 81 1013.9
20260510123551 68 0 0.0 2.6 0.00 0.00 0.00 82 1013.9
20260510123058 68 268 0.9 2.6 0.00 0.00 0.00 84 1013.8
20260510122554 67 264 0.0 1.7 0.00 0.00 0.00 84 1013.7
20260510122052 66 264 0.0 1.7 0.00 0.00 0.00 85 1013.7
20260510121557 65 0 0.0 0.9 0.00 0.00 0.00 86 1013.6
20260510121054 65 0 0.0 0.9 0.00 0.00 0.00 87 1013.5
20260510120553 64 0 0.0 1.7 0.00 0.00 0.00 88 1013.6
20260510120057 63 0 0.0 1.7 0.00 0.00 0.00 88 1013.6
20260510115552 62 263 0.0 2.6 0.00 0.00 0.00 89 1013.5
20260510115052 62 263 0.0 2.6 0.00 0.00 0.00 89 1013.4
20260510114554 61 263 0.9 2.6 0.00 0.00 0.00 90 1013.2
20260510114053 61 0 0.0 0.0 0.00 0.00 0.00 90 1013.2
20260510113552 60 0 0.0 0.0 0.00 0.00 0.00 90 1013.3
20260510113100 59 0 0.0 0.0 0.00 0.00 0.00 90 1013.2
20260510112552 58 0 0.0 0.0 0.00 0.00 0.00 90 1013.2
20260510112055 58 0 0.0 0.0 0.00 0.00 0.00 90 1013.1
20260510111555 57 0 0.0 0.0 0.00 0.00 0.00 90 1013.0
20260510111051 57 0 0.0 0.0 0.00 0.00 0.00 90 1012.9
20260510110552 56 0 0.0 0.0 0.00 0.00 0.00 90 1012.7
20260510110054 56 0 0.0 0.9 0.00 0.00 0.00 89 1012.7
20260510105553 56 0 0.0 0.9 0.00 0.00 0.00 89 1012.5
20260510105052 56 0 0.0 0.0 0.00 0.00 0.00 89 1012.5
20260510104554 56 0 0.0 0.0 0.00 0.00 0.00 89 1012.2
20260510104053 56 0 0.0 0.0 0.00 0.00 0.00 88 1012.3
20260510103552 56 0 0.0 0.0 0.00 0.00 0.00 88 1012.2
20260510103056 56 0 0.0 0.0 0.00 0.00 0.00 88 1012.2
20260510102552 56 0 0.0 0.0 0.00 0.00 0.00 88 1012.2
20260510102055 56 0 0.0 0.9 0.00 0.00 0.00 88 1012.1
20260510101558 56 0 0.0 2.6 0.00 0.00 0.00 88 1012.1
20260510101057 56 0 0.0 2.6 0.00 0.00 0.00 88 1012.0
20260510100552 57 263 0.0 1.7 0.00 0.00 0.00 88 1011.9
20260510100059 57 263 0.0 0.9 0.00 0.00 0.00 88 1011.8
20260510095552 57 0 0.0 0.9 0.00 0.00 0.00 88 1011.6
20260510095052 57 263 0.0 0.0 0.00 0.00 0.00 88 1011.6
20260510094553 57 0 0.0 0.0 0.00 0.00 0.00 87 1011.5
20260510094052 57 0 0.0 0.0 0.00 0.00 0.00 87 1011.5
20260510093553 57 0 0.0 0.0 0.00 0.00 0.00 87 1011.4
20260510093056 58 0 0.0 0.0 0.00 0.00 0.00 87 1011.3
20260510092553 58 0 0.0 0.0 0.00 0.00 0.00 87 1011.3
20260510092053 58 0 0.0 0.0 0.00 0.00 0.00 87 1011.3
20260510091601 58 0 0.0 0.0 0.00 0.00 0.00 87 1011.2
20260510091052 58 0 0.0 0.0 0.00 0.00 0.00 87 1011.0
20260510090554 58 0 0.0 0.0 0.00 0.00 0.00 87 1011.2
20260510090113 58 0 0.0 0.0 0.00 0.00 0.00 86 1011.1
20260510085556 59 0 0.0 0.0 0.00 0.00 0.00 86 1011.0
20260510085052 59 0 0.0 0.0 0.00 0.00 0.00 86 1011.0
20260510084601 59 0 0.0 0.9 0.00 0.00 0.00 86 1010.9
20260510084052 59 0 0.0 0.9 0.00 0.00 0.00 86 1010.9
20260510083552 59 263 0.0 0.9 0.00 0.00 0.00 86 1010.9
20260510083102 60 263 0.0 0.9 0.00 0.00 0.00 86 1010.7
20260510082552 60 0 0.0 0.9 0.00 0.00 0.00 86 1010.8
20260510082128 60 0 0.0 0.9 0.00 0.00 0.00 86 1010.7
20260510081600 60 0 0.0 0.9 0.00 0.00 0.00 86 1010.8
20260510081053 60 0 0.0 0.9 0.00 0.00 0.00 85 1010.8
20260510080552 60 0 0.0 1.7 0.00 0.00 0.00 85 1010.8
20260510080103 61 0 0.0 1.7 0.00 0.00 0.00 85 1010.8
20260510075552 61 0 0.0 0.9 0.00 0.00 0.00 85 1010.7
20260510075052 61 263 0.0 0.9 0.00 0.00 0.00 85 1010.7
20260510074558 61 0 0.0 0.9 0.00 0.00 0.00 85 1010.7
20260510074052 61 0 0.0 0.9 0.00 0.00 0.00 85 1010.6
20260510073552 61 0 0.0 0.9 0.00 0.00 0.00 85 1010.5
20260510073115 61 0 0.0 1.7 0.00 0.00 0.00 85 1010.6
20260510072553 61 0 0.0 1.7 0.00 0.00 0.00 85 1010.6
20260510072053 61 263 0.0 2.6 0.00 0.00 0.00 84 1010.6
20260510071556 61 0 0.0 2.6 0.00 0.00 0.00 84 1010.5
20260510071052 62 0 0.0 2.6 0.00 0.00 0.00 84 1010.5
20260510070552 62 251 0.0 1.7 0.00 0.00 0.00 84 1010.5
20260510065552 62 0 0.0 2.6 0.00 0.00 0.00 83 1010.5
20260510065051 62 0 0.0 2.6 0.00 0.00 0.00 83 1010.5
20260510064634 63 251 0.0 1.7 0.00 0.00 0.00 83 1010.5
20260510064051 63 0 0.0 1.7 0.00 0.00 0.00 83 1010.6
20260510063553 63 251 0.0 1.7 0.00 0.00 0.00 83 1010.5
20260510063059 63 0 0.0 2.6 0.00 0.00 0.00 83 1010.4
20260510062552 63 0 0.0 2.6 0.00 0.00 0.00 82 1010.7
20260510062051 63 251 0.0 2.6 0.00 0.00 0.00 82 1010.6
20260510061600 64 0 0.0 2.6 0.00 0.00 0.00 82 1010.6
20260510061053 64 250 0.0 2.6 0.00 0.00 0.00 82 1010.6
20260510060556 64 0 0.0 2.6 0.00 0.00 0.00 82 1010.6
20260510060058 64 0 0.0 1.7 0.00 0.00 0.00 82 1010.7
20260510055553 64 0 0.0 1.7 0.00 0.00 0.00 82 1010.8
20260510055051 64 243 0.0 2.6 0.00 0.00 0.00 81 1010.7
20260510054552 64 0 0.0 3.5 0.00 0.00 0.00 81 1010.6
20260510054053 64 243 0.0 3.5 0.00 0.00 0.00 81 1010.7
20260510053553 64 0 0.9 3.5 0.00 0.00 0.00 81 1010.9
20260510053055 64 242 0.9 5.2 0.00 0.00 0.00 81 1010.9
20260510052552 64 0 0.9 5.2 0.00 0.00 0.00 81 1010.8
20260510052053 64 281 0.0 3.5 0.00 0.00 0.00 81 1010.9
20260510051558 64 0 0.0 3.5 0.00 0.00 0.00 81 1011.0
20260510051051 64 0 0.9 5.2 0.00 0.00 0.00 81 1010.9
20260510050551 64 0 0.9 5.2 0.00 0.00 0.00 81 1010.8
20260510050058 64 296 0.9 4.3 0.00 0.00 0.00 81 1010.9
20260510045553 64 242 0.0 2.6 0.00 0.00 0.00 81 1010.9
20260510045052 64 281 0.0 3.5 0.00 0.00 0.00 80 1010.9
20260510044612 64 0 0.9 3.5 0.00 0.00 0.00 80 1010.9
20260510044054 64 269 0.0 1.7 0.00 0.00 0.00 80 1010.8
20260510043551 64 269 0.0 2.6 0.00 0.00 0.00 80 1010.8
20260510043058 64 269 0.0 3.5 0.00 0.00 0.00 79 1010.9
20260510042554 64 0 0.9 3.5 0.00 0.00 0.00 79 1010.9
20260510042053 64 275 0.0 2.6 0.00 0.00 0.00 79 1010.8
20260510041558 64 186 0.9 2.6 0.00 0.00 0.00 78 1010.8
20260510041052 64 183 0.0 1.7 0.00 0.00 0.00 78 1010.7
20260510040553 64 0 0.0 1.7 0.00 0.00 0.00 77 1010.7
20260510040058 64 0 0.0 1.7 0.00 0.00 0.00 77 1010.7
20260510035552 64 0 0.0 4.3 0.00 0.00 0.00 77 1010.8
20260510035053 64 0 0.0 4.3 0.00 0.00 0.00 77 1010.6
20260510034616 64 0 0.9 4.3 0.00 0.00 0.00 77 1010.6
20260510034052 64 0 0.0 4.3 0.00 0.00 0.00 77 1010.6
20260510033553 64 190 0.9 4.3 0.00 0.00 0.00 76 1010.4
20260510033059 64 0 0.9 2.6 0.00 0.00 0.00 76 1010.5
20260510032553 64 0 0.0 2.6 0.00 0.00 0.00 76 1010.4
20260510032053 64 0 0.0 1.7 0.00 0.00 0.00 76 1010.4
20260510031554 64 0 0.0 1.7 0.00 0.00 0.00 75 1010.3
20260510031054 64 0 0.0 2.6 0.00 0.00 0.00 75 1010.4
20260510030551 64 0 0.0 2.6 0.00 0.00 0.00 75 1010.3
20260510030059 64 0 0.0 1.7 0.00 0.00 0.00 74 1010.5
20260510025553 64 0 0.0 1.7 0.00 0.00 0.00 74 1010.4
20260510025051 64 0 0.0 2.6 0.00 0.00 0.00 74 1010.4
20260510024601 64 0 0.0 2.6 0.00 0.00 0.00 73 1010.3
20260510024052 64 0 0.0 2.6 0.00 0.00 0.00 73 1010.2
20260510023552 64 192 0.0 2.6 0.00 0.00 0.00 73 1010.3
20260510023054 65 0 0.0 1.7 0.00 0.00 0.00 73 1010.4
20260510022554 65 0 0.0 1.7 0.00 0.00 0.00 72 1010.3
20260510022052 65 192 0.0 1.7 0.00 0.00 0.00 72 1010.2
20260510021604 65 0 0.0 1.7 0.00 0.00 0.00 72 1010.2
20260510021052 65 0 0.0 0.9 0.00 0.00 0.00 71 1010.1
20260510020554 65 0 0.0 0.9 0.00 0.00 0.00 71 1010.1
20260510020054 65 192 0.0 0.9 0.00 0.00 0.00 70 1009.9
20260510015552 65 0 0.0 0.9 0.00 0.00 0.00 70 1009.8
20260510015051 65 0 0.0 2.6 0.00 0.00 0.00 70 1009.9
20260510014602 66 0 0.0 3.5 0.00 0.00 0.00 69 1009.9
20260510014053 66 0 0.0 3.5 0.00 0.00 0.00 69 1009.7
20260510013554 66 192 0.0 0.9 0.00 0.00 0.00 69 1009.7
20260510013117 66 192 0.0 0.9 0.00 0.00 0.00 68 1009.6
20260510012551 67 0 0.0 0.9 0.00 0.00 0.00 67 1009.6
20260510012052 67 0 0.0 0.9 0.00 0.00 0.00 66 1009.6
20260510011558 67 0 0.0 0.9 0.00 0.00 0.00 66 1009.7
20260510011052 68 0 0.0 0.0 0.00 0.00 0.00 65 1009.6
20260510010553 68 0 0.0 0.0 0.00 0.00 0.00 65 1009.5
20260510010056 68 0 0.0 0.9 0.00 0.00 0.00 65 1009.4
20260510005553 68 0 0.0 0.9 0.00 0.00 0.00 64 1009.3
20260510005051 69 0 0.0 0.9 0.00 0.00 0.00 64 1009.4
20260510004555 69 0 0.0 2.6 0.00 0.00 0.00 63 1009.4
20260510004052 69 0 0.0 2.6 0.00 0.00 0.00 63 1009.4
20260510003554 70 192 0.0 1.7 0.00 0.00 0.00 62 1009.3
20260510003104 70 0 0.0 1.7 0.00 0.00 0.00 62 1009.2
20260510002556 70 0 0.0 3.5 0.00 0.00 0.00 61 1009.2
20260510002056 71 0 0.0 3.5 0.00 0.00 0.00 61 1009.0
20260510001555 71 0 0.0 2.6 0.00 0.00 0.00 60 1009.1
20260510001052 72 0 0.0 2.6 0.00 0.00 0.00 60 1009.0
20260510000554 72 0 0.0 2.6 0.00 0.00 0.00 60 1008.9
20260510000123 72 0 0.0 2.6 0.00 0.00 0.00 59 1008.7
20260509235552 73 192 0.9 2.6 0.00 0.00 0.00 59 1008.7
20260509235053 73 0 0.0 2.6 0.00 0.00 0.00 58 1008.7
20260509234554 73 0 0.0 3.5 0.00 0.00 0.00 58 1008.6
20260509234052 73 192 0.0 5.2 0.00 0.00 0.00 57 1008.5
20260509233553 74 192 0.0 5.2 0.00 0.00 0.00 56 1008.4
20260509233054 74 190 0.0 1.7 0.00 0.00 0.00 56 1008.5
20260509232553 74 190 0.0 4.3 0.00 0.00 0.00 55 1008.5
20260509232053 75 190 0.0 4.3 0.00 0.00 0.00 54 1008.6
20260509231608 75 0 0.9 4.3 0.00 0.00 0.00 54 1008.5
20260509231052 75 0 0.0 2.6 0.00 0.00 0.00 54 1008.5
20260509230552 75 0 0.0 2.6 0.00 0.00 0.00 53 1008.5
20260509230105 76 0 0.9 3.5 0.00 0.00 0.00 53 1008.4
20260509225552 76 252 0.9 3.5 0.00 0.00 0.00 53 1008.3
20260509225052 76 0 0.9 2.6 0.00 0.00 0.00 53 1008.4
20260509224553 76 0 0.0 2.6 0.00 0.00 0.00 52 1008.4
20260509224051 76 254 0.0 6.1 0.00 0.00 0.00 51 1008.5
20260509223603 76 254 1.7 6.1 0.00 0.00 0.00 51 1008.5
20260509223103 77 257 1.7 6.1 0.00 0.00 0.00 50 1008.4
20260509222552 77 304 0.9 5.2 0.00 0.00 0.00 50 1008.4
20260509222052 77 198 0.9 5.2 0.00 0.00 0.00 50 1008.3
20260509221612 77 0 0.9 7.8 0.00 0.00 0.00 50 1008.2
20260509221052 77 174 0.9 10.4 0.00 0.00 0.00 49 1008.0
20260509220552 77 177 3.5 10.4 0.00 0.00 0.00 49 1008.2
20260509220057 77 281 2.6 7.8 0.00 0.00 0.00 48 1008.2
20260509215553 77 159 0.9 6.1 0.00 0.00 0.00 49 1008.2
20260509215055 78 189 2.6 9.6 0.00 0.00 0.00 49 1008.1
20260509214602 78 273 3.5 9.6 0.00 0.00 0.00 49 1008.1
20260509214052 78 164 2.6 7.0 0.00 0.00 0.00 49 1008.1
20260509213552 78 177 1.7 7.0 0.00 0.00 0.00 49 1008.1
20260509213054 78 177 1.7 7.8 0.00 0.00 0.00 50 1008.0
20260509212552 78 194 2.6 7.8 0.00 0.00 0.00 50 1007.9
20260509212055 78 153 1.7 7.0 0.00 0.00 0.00 50 1007.9
20260509211602 78 178 1.7 7.0 0.00 0.00 0.00 50 1008.0
20260509211053 78 204 1.7 8.7 0.00 0.00 0.00 50 1007.9
20260509210553 78 191 1.7 8.7 0.00 0.00 0.00 50 1008.0
20260509210100 79 227 2.6 8.7 0.00 0.00 0.00 50 1008.1
20260509205552 79 182 2.6 7.0 0.00 0.00 0.00 50 1007.9
20260509205052 79 194 0.9 6.1 0.00 0.00 0.00 50 1008.1
20260509204555 79 304 1.7 7.8 0.00 0.00 0.00 50 1008.1
20260509204052 79 238 0.9 7.8 0.00 0.00 0.00 50 1008.0
20260509203552 79 186 1.7 6.1 0.00 0.00 0.00 51 1008.0
20260509203056 79 0 2.6 7.0 0.00 0.00 0.00 51 1008.1
20260509202552 79 201 1.7 7.0 0.00 0.00 0.00 52 1008.1